Date String (YYYY-MM-DD hh:mm:ss) UTC,Instrument flags,absolute air pressure of the measurement (hPa),sample flow rate (lpm),inlet stack bypass flow (lpm),air temperature of the measurement (°C),ambient temperature measured by the external sensor (°C),aerosol sample conditioner tube jacket temperature (°C),OPC LED temperature (°C),internal box temperature (°C),relative humidity of the measurement (%),span deviation,mass concentration of particles derived from Lorenz-Mie calculation of OPC scattering (μg/m³),mass concentration of particles derived from Lorenz-Mie calculation of OPC scattering (μg/m³),mass concentration of particles derived from Lorenz-Mie calculation of OPC scattering (μg/m³)
DateTimeUTC,F1_M11,P_M11,Q1_M11,Q2_M11,T1_M11,T2_M11,T3_M11,T4_M11,T5_M11,U1_M11,ZSPAN_M11,X0_M11,X2_M11,X1_M11
2023-12-14 20:00:00,SystemResetWarning,0831.5,4.99,000.00,018.7,017.7,000.0,027.1,020.0,22.8,0000.6,0027.62,0019.25,0018.27
2023-12-14 20:01:00,SystemResetWarning,0831.5,4.99,000.00,018.7,017.7,000.0,027.1,020.0,22.8,0000.7,0028.25,0019.25,0018.27
2023-12-14 20:02:00,SystemResetWarning,0831.4,5.00,000.00,018.7,017.7,000.0,027.1,020.0,22.9,0000.6,0028.54,0019.26,0018.23
2023-12-14 20:03:00,SystemResetWarning,0831.5,5.01,000.00,018.7,017.7,000.0,027.1,020.0,22.9,0000.5,0029.06,0019.25,0018.22
2023-12-14 20:04:00,SystemResetWarning,0831.4,5.01,000.00,018.7,017.7,000.0,027.1,020.0,22.8,0000.5,0028.75,0019.25,0018.18
2023-12-14 20:05:00,SystemResetWarning,0831.4,5.01,000.00,018.7,017.7,000.0,027.1,020.0,22.7,0000.5,0028.15,0019.21,0018.11
2023-12-14 20:06:00,SystemResetWarning,0831.5,5.00,000.00,018.7,017.7,000.0,027.1,020.0,22.7,0000.5,0028.03,0019.14,0018.07
2023-12-14 20:07:00,SystemResetWarning,0831.5,5.00,000.00,018.7,017.7,000.0,027.1,020.0,22.7,0000.4,0027.94,0019.06,0017.98
2023-12-14 20:08:00,SystemResetWarning,0831.4,5.00,000.00,018.7,017.7,000.0,027.1,020.0,22.6,0000.3,0027.73,0018.93,0017.86
2023-12-14 20:09:00,SystemResetWarning,0831.4,5.00,000.00,018.7,017.7,000.0,027.1,020.0,22.6,0000.2,0027.52,0018.83,0017.77
2023-12-14 20:10:00,SystemResetWarning,0831.5,5.00,000.00,018.7,017.7,000.0,027.1,020.0,22.7,0000.3,0027.32,0018.67,0017.67
2023-12-14 20:11:00,SystemResetWarning,0831.4,5.00,000.00,018.7,017.7,000.0,027.1,020.0,22.8,0000.4,0027.03,0018.58,0017.63
2023-12-14 20:12:00,SystemResetWarning,0831.4,5.00,000.00,018.7,017.7,000.0,027.1,020.0,22.9,0000.3,0025.78,0018.46,0017.53
2023-12-14 20:13:00,SystemResetWarning,0831.5,5.00,000.00,018.7,017.7,000.0,027.1,020.0,23.0,0000.3,0025.37,0018.28,0017.44
2023-12-14 20:14:00,SystemResetWarning,0831.4,5.00,000.00,018.7,017.7,000.0,027.1,020.0,23.0,0000.4,0024.69,0018.22,0017.40
2023-12-14 20:15:00,SystemResetWarning,0831.4,5.01,000.00,018.7,017.7,000.0,027.1,020.0,23.2,0000.3,0024.69,0018.17,0017.37
2023-12-14 20:16:00,SystemResetWarning,0831.4,5.01,000.00,018.7,017.7,000.0,027.1,020.0,23.1,0000.3,0025.07,0018.17,0017.39
2023-12-14 20:17:00,SystemResetWarning,0831.4,5.00,000.00,018.7,017.7,000.0,027.1,020.0,22.8,0000.3,0025.16,0018.18,0017.38
2023-12-14 20:18:00,SystemResetWarning,0831.5,5.00,000.00,018.7,017.8,000.0,027.1,020.0,22.7,0000.4,0025.19,0018.15,0017.39
2023-12-14 20:19:00,SystemResetWarning,0831.4,5.00,000.00,018.7,017.8,000.0,027.1,020.0,23.0,0000.5,0025.24,0018.17,0017.43
2023-12-14 20:20:00,SystemResetWarning,0831.4,5.00,000.00,018.7,017.8,000.0,027.1,020.0,23.0,0000.4,0025.49,0018.19,0017.44
2023-12-14 20:21:00,SystemResetWarning,0831.4,5.00,000.00,018.7,017.8,000.0,027.1,020.0,23.1,0000.5,0025.63,0018.28,0017.50
2023-12-14 20:22:00,SystemResetWarning,0831.5,5.00,000.00,018.7,017.8,000.0,027.1,020.0,23.1,0000.4,0025.57,0018.33,0017.52
2023-12-14 20:23:00,SystemResetWarning,0831.5,4.99,000.00,018.8,017.8,000.0,027.1,020.0,23.0,0000.5,0026.05,0018.37,0017.57
2023-12-14 20:24:00,SystemResetWarning,0831.4,5.00,000.00,018.7,017.8,000.0,027.1,020.0,22.9,0000.5,0026.33,0018.51,0017.64
2023-12-14 20:25:00,SystemResetWarning,0831.5,5.00,000.00,018.7,017.8,000.0,027.1,020.0,23.1,0000.5,0026.44,0018.54,0017.64
2023-12-14 20:26:00,SystemResetWarning,0831.4,5.01,000.00,018.7,017.8,000.0,027.1,020.0,23.0,0000.6,0026.33,0018.55,0017.65
2023-12-14 20:27:00,SystemResetWarning,0831.4,5.01,000.00,018.7,017.8,000.0,027.1,020.0,22.8,0000.7,0025.91,0018.54,0017.63
2023-12-14 20:28:00,SystemResetWarning,0831.4,5.01,000.00,018.7,017.8,000.0,027.1,020.0,22.8,0000.7,0025.84,0018.51,0017.61
2023-12-14 20:29:00,SystemResetWarning,0831.5,5.00,000.00,018.7,017.8,000.0,027.1,020.0,22.8,0000.6,0025.68,0018.49,0017.58
2023-12-14 20:30:00,SystemResetWarning,0831.4,5.00,000.00,018.7,017.8,000.0,027.1,020.0,22.9,0000.7,0025.69,0018.48,0017.55
2023-12-14 20:31:00,SystemResetWarning,0831.4,4.99,000.00,018.7,017.8,000.0,027.1,020.0,23.0,0000.7,0026.17,0018.50,0017.55
2023-12-14 20:32:00,SystemResetWarning,0831.4,5.00,000.00,018.7,017.8,000.0,027.1,020.0,22.9,0000.7,0026.54,0018.42,0017.49
2023-12-14 20:33:00,SystemResetWarning,0831.4,5.00,000.00,018.7,017.8,000.0,027.1,020.0,22.8,0000.7,0026.24,0018.31,0017.44
2023-12-14 20:34:00,SystemResetWarning,0831.5,5.00,000.00,018.7,017.8,000.0,027.1,020.0,22.8,0000.7,0025.92,0018.25,0017.41
2023-12-14 20:35:00,SystemResetWarning,0831.5,5.00,000.00,018.8,017.8,000.0,027.1,020.0,22.8,0000.8,0025.93,0018.23,0017.42
2023-12-14 20:36:00,SystemResetWarning,0831.4,5.00,000.00,018.8,017.8,000.0,027.1,020.0,23.1,0000.9,0026.62,0018.27,0017.46
2023-12-14 20:37:00,SystemResetWarning,0831.4,5.00,000.00,018.7,017.8,000.0,027.1,020.0,23.4,0000.8,0026.69,0018.30,0017.51
2023-12-14 20:38:00,SystemResetWarning,0831.4,5.00,000.00,018.8,017.8,000.0,027.1,020.0,23.1,0000.7,0026.64,0018.30,0017.52
2023-12-14 20:39:00,SystemResetWarning,0831.4,5.00,000.00,018.8,017.8,000.0,027.1,020.0,23.0,0000.6,0026.71,0018.33,0017.56
2023-12-14 20:40:00,SystemResetWarning,0831.4,5.00,000.00,018.8,017.8,000.0,027.1,020.0,22.9,0000.7,0027.53,0018.40,0017.60
2023-12-14 20:41:00,SystemResetWarning,0831.3,5.00,000.00,018.8,017.8,000.0,027.1,020.0,22.9,0000.5,0027.81,0018.44,0017.65
2023-12-14 20:42:00,SystemResetWarning,0831.4,5.00,000.00,018.8,017.8,000.0,027.1,020.0,22.9,0000.5,0027.38,0018.46,0017.69
2023-12-14 20:43:00,SystemResetWarning,0831.4,5.00,000.00,018.8,017.8,000.0,027.1,020.0,23.0,0000.4,0026.84,0018.50,0017.75
2023-12-14 20:44:00,SystemResetWarning,0831.4,5.00,000.00,018.8,017.8,000.0,027.1,020.0,23.0,0000.4,0027.60,0018.65,0017.84
2023-12-14 20:45:00,SystemResetWarning,0831.3,4.99,000.00,018.8,017.8,000.0,027.1,020.0,23.0,0000.2,0027.56,0018.73,0017.88
2023-12-14 20:46:00,SystemResetWarning,0831.4,5.00,000.00,018.8,017.8,000.0,027.1,020.0,23.0,0000.2,0027.65,0018.78,0017.90
2023-12-14 20:47:00,SystemResetWarning,0831.4,5.00,000.00,018.8,017.9,000.0,027.1,020.0,23.1,0000.1,0027.23,0018.75,0017.89
2023-12-14 20:48:00,SystemResetWarning,0831.4,5.00,000.00,018.8,017.9,000.0,027.1,020.0,23.2,0000.2,0027.16,0018.75,0017.89
2023-12-14 20:49:00,SystemResetWarning,0831.5,5.00,000.00,018.8,017.9,000.0,027.1,020.0,23.3,0000.3,0027.11,0018.78,0017.91
2023-12-14 20:50:00,SystemResetWarning,0831.5,5.00,000.00,018.8,017.9,000.0,027.1,020.0,23.4,0000.5,0027.30,0018.78,0017.92
2023-12-14 20:51:00,SystemResetWarning,0831.4,5.00,000.00,018.8,017.9,000.0,027.1,020.0,23.3,0000.4,0026.83,0018.83,0017.97
2023-12-14 20:52:00,SystemResetWarning,0831.4,5.00,000.00,018.8,017.9,000.0,027.1,020.0,23.2,0000.4,0026.87,0018.86,0018.00
2023-12-14 20:53:00,SystemResetWarning,0831.5,5.00,000.00,018.8,017.9,000.0,027.1,020.0,23.3,0000.3,0026.92,0018.93,0018.03
2023-12-14 20:54:00,SystemResetWarning,0831.5,5.00,000.00,018.8,017.9,000.0,027.1,020.0,23.1,0000.4,0026.93,0018.99,0018.06
2023-12-14 20:55:00,SystemResetWarning,0831.5,5.00,000.00,018.8,017.9,000.0,027.1,020.0,23.0,0000.4,0026.54,0019.02,0018.08
2023-12-14 20:56:00,SystemResetWarning,0831.5,5.00,000.00,018.8,017.9,000.0,027.1,020.0,23.0,0000.4,0026.99,0019.11,0018.16
2023-12-14 20:57:00,SystemResetWarning,0831.5,5.01,000.00,018.8,017.9,000.0,027.0,020.0,23.0,0000.4,0026.84,0019.14,0018.20
2023-12-14 20:58:00,SystemResetWarning,0831.4,5.00,000.00,018.8,017.9,000.0,027.0,020.0,23.2,0000.3,0026.59,0019.15,0018.23
2023-12-14 20:59:00,SystemResetWarning,0831.4,5.00,000.00,018.8,017.9,000.0,027.1,020.0,23.1,0000.2,0026.61,0019.20,0018.26
